Aérodrome :
LOGIN :

S'inscrire | Disclaimer

   EN    FR    IT 

 










Légende :    VFR   VFR Marginal   IFR   IFR Intensif   IFR Très Intensif
Visi : 
Plafond : 
>= 8 km
>= 3000ft
5 à 8 km
1000 à 3000 ft
1500m à 5 km
500 à 1000 ft
800 à 1500m
200 à 500 ft
< 800m
< 200 ft
Symboles :   Orages  Brouillard  Fortes neiges  Fortes précipitations  Vent > 20 kt
SIGMETs :   Divers  Orages  Givrage  Turbulence  Onde Orograph.  Cendres Volcan.






- Altitude de l'aérodrome : 230 ft


ETHB - Buckeburg Army

DERNIER METAR :
  • 201420Z 05003KT 9999 FEW028TCU 21/14 Q1010 BLU+

METARs EXPIRÉS :
  • 201320Z 07005KT 9999 SCT025TCU SCT050 20/13 Q1011 BLU+
  • 201220Z 03003KT 9999 -SHRA SCT018CB BKN020 19/14 Q1011 WHT
  • 201120Z 34002KT 9999 BKN017 18/14 Q1011 WHT
  • 201020Z 36002KT 9999 BKN015 18/13 Q1012 WHT

Prévision TAF périmée.



MET'MAP, la Météo Aéronautique d'un coup d'oeil ! - Copyright ORBIFLY Décembre 2007 - Disclaimer

ORBIFLY MET'MAP TEAM :

Programmation & Développement : Alexandra Zaïnal
Sur une idée originale de : Baudouin d'Aumeries
Soutien technique & logistique : Manuel Goepfert
Assistance : Marc-Olivier Méhu




SOURCES & CREDITS :

   NOAA